Location: Oundoundou
(13.6667°N, 13.5500°W)
Time: 23:47:46
(UTC+00:00)

Daily predictions for brighter satellites

Satellite Brightness Start Highest point End
(mag) Time Altitude Azimuth Time Altitude Azimuth Time Altitude Azimuth
Cosmos 1400 Rocket 4.4 19:31:56 10° SSW 19:35:52 42° W 19:39:46 10° NNW
Centaur AC-119 3.7 19:31:44 10° NW 19:36:00 24° N 19:38:03 10° ENE
Cosmos 1315 Rocket 2.8 19:33:22 10° S 19:37:18 86° W 19:41:18 10° N
Cosmos 1455 Rocket 4.1 19:36:34 10° SE 19:39:59 23° E 19:43:24 10° NE
SJ-6B 2.6 19:43:35 10° SSE 19:47:21 86° ENE 19:51:05 10° N
ARIANE 5 R/B 3.7 19:46:56 10° WSW 19:49:04 13° SSW 19:50:27 10° S
Cosmos 1025 Rocket 3.8 19:47:29 10° NNE 19:51:15 29° E 19:54:59 10° SE
Resurs 01 Rocket 1.8 19:52:33 10° SSE 19:56:50 52° ENE 20:01:07 10° N
Cosmos 1633 3.9 19:57:38 10° SSW 20:01:09 43° W 20:04:38 10° NNW
ATLAS V CENTAUR R/B 2.8 20:04:57 10° WSW 20:07:17 76° SSE 20:12:21 17° E
Meteor 1-5 Rocket 4.0 20:02:14 10° S 20:07:30 77° E 20:12:48 10° N
Cosmos 1656 4.0 20:02:29 10° S 20:07:50 43° ESE 20:13:07 10° NE
Cosmos 2208 Rocket 4.3 20:03:14 10° SSW 20:08:26 73° WNW 20:13:44 10° N
HJ-1C 3.4 20:09:47 10° S 20:13:03 77° WSW 20:16:18 10° NNW
Cosmos 1544 Rocket 3.7 20:09:16 10° S 20:13:35 75° W 20:17:56 10° N
Meteor 1-13 Rocket 4.5 20:08:22 10° N 20:14:04 73° W 20:19:39 10° S
Hubble Space Telescope 3.3 20:13:02 10° NNW 20:14:32 12° N 20:16:01 10° NNE
Cosmos 1821 Rocket 4.2 20:10:27 10° S 20:16:35 72° W 20:22:40 10° N
Meteor 2-16 Rocket 4.4 20:12:18 10° S 20:18:23 88° W 20:24:28 10° N
GPS 2-15 Rocket1 3.6 20:14:25 10° W 20:18:59 54° N 20:21:44 23° ENE
Spot 2 Rocket 3.6 20:14:18 10° S 20:19:24 79° WSW 20:24:30 10° NNW
Cosmos 1605 Rocket 4.0 20:13:11 10° S 20:19:27 61° E 20:25:41 10° NNE
Meteor 1-19 Rocket 4.2 20:17:44 10° N 20:23:20 83° W 20:28:53 10° S
GPS 2-18 Rocket1 3.3 20:21:47 10° WSW 20:25:38 51° SSE 20:26:01 49° SE
ATLAS 2A CENTAUR R/B 2.9 20:26:31 10° NW 20:28:44 14° N 20:29:19 14° N
ATLAS 2AS CENTAUR R/B 4.1 20:22:32 10° NW 20:29:28 40° WSW 20:35:51 10° S
USA 186 4.4 20:35:05 11° NNE 20:35:05 11° NNE 20:35:14 10° NNE
Palapa 6 Rocket 3.9 20:28:44 10° WNW 20:34:02 44° N 20:35:22 36° NE
EO 1 Delta rocket 4.5 20:31:55 10° N 20:37:00 74° W 20:43:21 10° SSW
Cosmos 2219 3.7 20:47:30 10° NNW 20:52:59 58° WSW 20:56:09 25° S
Cosmos 1697 Rocket 2.6 20:48:05 10° SSW 20:53:45 88° WNW 20:59:24 10° NNE
Cosmos 1975 3.9 21:03:41 43° NW 21:03:41 43° NW 21:06:52 10° N
Cosmos 2123 Rocket 3.9 20:58:08 10° N 21:04:18 88° W 21:05:49 54° S
ALOS 3.2 21:06:49 40° SW 21:07:47 46° W 21:12:15 10° NNW
BREEZE-M DEB (TANK) 4.1 21:07:23 10° NW 21:09:56 27° NW 21:09:56 27° NW
CZ-3C R/B 2.9 20:59:49 10° W 21:34:15 63° N 21:35:15 59° NNE
CZ-3A R/B 4.2 21:33:18 10° WNW 21:36:38 26° W 21:36:38 26° W
Cosmos 2227 Rocket 4.2 21:52:42 10° NNW 21:54:38 22° NNW 21:54:38 22° NNW
